Hourly Data Report for September 14, 2017

All times are specified in Local Standard Time (LST). Add 1 hour to adjust for Daylight Saving Time where and when it is observed.

BUCTOUCHE CDA CS
NEW BRUNSWICK

46°25'49.006" N
64°46'05.009" W
35.90 m
8100593
71666
ABT

Download Data

Hourly Data (September 2017)
Hourly Data Report for September 14, 2017
Temp Definition
°C
Dew Point Temp Definition
°C
Rel Hum Definition
%
Wind Dir Definition
10's deg

Wind Spd Definition
km/h
Visibility Definition
km
Stn Press Definition
kPa
Hmdx Definition


Wind Chill Definition


Weather Definition


TIME
00:00 17.3 12.0 71 23 14   100.13     LegendNANA
01:00 17.0 11.8 72 23 15   100.13     LegendNANA
02:00 16.3 11.6 74 23 15   100.14     LegendNANA
03:00 16.4 11.7 73 23 13   100.15     LegendNANA
04:00 16.1 11.9 76 23 13   100.15     LegendNANA
05:00 15.9 11.8 76 23 14   100.19     LegendNANA
06:00 15.6 11.9 79 23 14   100.25     LegendNANA
07:00 16.1 12.3 78 23 15   100.31     LegendNANA
08:00 17.7 13.0 74 23 15   100.33     LegendNANA
09:00 20.4 14.2 68 23 11   100.37     LegendNANA
10:00 22.7 14.5 60 23 13   100.38 26   LegendNANA
11:00 24.2 14.7 55 23 10   100.38 28   LegendNANA
12:00 25.7 14.6 50 24 7   100.33 29   LegendNANA
13:00 26.3 14.4 48 23 9   100.31 30   LegendNANA
14:00 27.4 14.2 44 24 9   100.28 31   LegendNANA
15:00 27.5 13.4 42 24 10   100.28 31   LegendNANA
16:00 27.1 13.6 43 23 13   100.29 30   LegendNANA
17:00 26.4 14.3 47 24 9   100.34 30   LegendNANA
18:00 24.3 14.9 56 21 8   100.38 28   LegendNANA
19:00 21.2 14.7 67 21 7   100.46 25   LegendNANA
20:00 20.9 14.9 68 26 6   100.58 25   LegendNANA
21:00 19.0 15.0 77 35 8   100.68     LegendNANA
22:00 17.0 13.6 81 4 2   100.74     LegendNANA
23:00 15.7 13.4 87   0   100.80     LegendNANA

Notes on Data Quality.

Legend

  • E = Estimated
  • M = Missing
  • NA = Not Available
  • ‡ = Partner data that is not subject to review by the National Climate Archives
Date modified: